User: anonymous   Login
Location: Veytaux
(46.4185°N, 6.9320°E)
Time: 04:44:33
(UTC+00:00)
Language:

Helios 1B rocket - Orbit

View from above orbital plane
View from above orbital plane
View from above satellite
View from above satellite

Ground track
Ground track

The orbit data is extracted from the following two-line orbital elements,

1 25979U 99064C   22228.86059006  .00002964  00000-0  25636-3 0  9996
2 25979  98.2143 192.8922 0005721 178.8932 181.2303 14.98013520232241
Epoch (UTC): 16 August 2022 20:39:14
Eccentricity: 0.0005721
inclination: 98.2143°
perigee height: 569 km
apogee height: 577 km
right ascension of ascending node: 192.8922°
argument of perigee: 178.8932°
revolutions per day: 14.98013520
mean anomaly at epoch: 181.2303°
orbit number at epoch: 23224

The dashed part of the orbit path shows where the satellite is in the earth's shadow,  

DLR